Regional Weather Roundup
Issued by NWS

Home | Current Version | Previous Version | Text Only | Print | Product List | Glossary Off
Versions: 1 2 3 4 5 6 7 8 9 10 11 12 13 14 15 16 17 18 19 20 21 22 23 24 25 26 27

000
ASUS45 KCYS 290410
RWRWY

WYOMING REGIONAL WEATHER ROUNDUP
NATIONAL WEATHER SERVICE CHEYENNE WY
1000 PM MDT TUE MAR 28 2017

NOTE:  "FAIR" INDICATES FEW OR NO CLOUDS BELOW 12,000 FEET
WITH NO SIGNIFICANT WEATHER AND/OR OBSTRUCTIONS TO VISIBILITY.

WYZ001-290500-
YELLOWSTONE NATIONAL PARK

CITY           SKY/WX    TMP DP  RH WIND       PRES   REMARKS
LK YELLOWSTONE   N/A     24  18  77 CALM      30.21R
W YELLOWSTONE  NOT AVBL

$$
WYZ002>013-054>058-071-098>099-290500-
NORTHERN WYOMING

CITY           SKY/WX    TMP DP  RH WIND       PRES   REMARKS
JACKSON        FAIR      34  23  64 CALM      30.20R
CODY           FAIR      36  28  73 S3        30.14R
GREYBULL       FAIR      43  36  76 SE3       30.13R
WORLAND        FAIR      39  35  86 S10       30.13R WCI  32
SHERIDAN       FAIR      33  31  92 NW6       30.14R WCI  28
BUFFALO        FAIR      38  32  79 S8        30.15S WCI  32
GILLETTE       CLOUDY    42  37  82 W5        30.13R
HULETT         CLOUDY    43  41  93 N3        30.13S
NEWCASTLE      MOCLDY    37  37 100 SE3       30.15R

$$
WYZ014>020-022>026-101>103-290500-
CENTRAL WYOMING

CITY           SKY/WX    TMP DP  RH WIND       PRES   REMARKS
BIG PINEY      FAIR      32  22  66 NW7       30.17R WCI  26
PINEDALE       FAIR      32  21  64 NW9       30.18R WCI  24
DUBOIS         FAIR      32  19  59 NW9       30.16R WCI  24
LANDER         MOCLDY    37  30  75 SW5       30.14R WCI  33
RIVERTON       MOCLDY    40  32  73 E6        30.16R
CASPER         MOCLDY    37  34  89 NW5       30.15R WCI  33
DOUGLAS        CLOUDY    40  38  93 NW5       30.14R

$$
WYZ021-027>030-104>119-290500-
SOUTHERN WYOMING

CITY           SKY/WX    TMP DP  RH WIND       PRES   REMARKS
EVANSTON       FAIR      32  23  69 NW12      30.20S WCI  23
KEMMERER         N/A     32  23  69 NW9       30.20R WCI  24
ROCK SPRINGS   MOCLDY    36  31  82 CALM      30.18R
DIXON            N/A     37  30  74 NE16G23   30.13F WCI  28
RAWLINS        MOCLDY    34  30  85 N6        30.15S WCI  29
SARATOGA       CLOUDY    34  34 100 NW9       30.14S WCI  26
LARAMIE        CLOUDY    32  32 100 N14       30.10R WCI  22
CHEYENNE       CLOUDY    34  33  96 N8        30.09R FOG     WCI  27
TORRINGTON     CLOUDY    40  38  93 NE9       30.12R WCI  34
PINE BLUFFS    CLOUDY    36  36 100 NE9       30.09R WCI  29

$$




USA.gov is the U.S. government's official web portal to all federal, state and local government web resources and services.